Wetterdaten: Woche 24.11.08 - 30.11.08 (KW48)
Datum Zeit Temperatur Luftfeuchte Luftdruck Niederschlag Windrichtung Wind
24.11.2008 00:00 -1,3 C 95 % 991,4 hPa 0,0 l/m SW 28,0 km/h (4 Bft)
24.11.2008 01:00 -1,3 C 96 % 991,6 hPa 0,0 l/m W-SW 24,3 km/h (4 Bft)
24.11.2008 02:00 -1,1 C 97 % 992,1 hPa 0,2 l/m SW 17,7 km/h (3 Bft)
24.11.2008 03:00 -0,4 C 97 % 992,1 hPa 0,0 l/m SW 14,1 km/h (3 Bft)
24.11.2008 04:00 0,1 C 97 % 991,9 hPa 0,0 l/m SW 13,7 km/h (3 Bft)
24.11.2008 05:00 0,3 C 97 % 992,2 hPa 0,0 l/m SW 12,1 km/h (2 Bft)
24.11.2008 06:00 0,6 C 95 % 992,2 hPa 0,0 l/m SW 15,8 km/h (3 Bft)
24.11.2008 07:00 0,5 C 95 % 992,4 hPa 0,0 l/m SW 13,0 km/h (3 Bft)
24.11.2008 08:00 0,6 C 97 % 992,9 hPa 0,0 l/m SW 15,3 km/h (3 Bft)
24.11.2008 09:00 1,1 C 96 % 993,3 hPa 0,0 l/m W-SW 14,9 km/h (3 Bft)
24.11.2008 10:00 1,9 C 93 % 993,7 hPa 0,0 l/m W-SW 13,8 km/h (3 Bft)
24.11.2008 11:00 2,6 C 90 % 993,9 hPa 0,0 l/m SW 18,4 km/h (3 Bft)
24.11.2008 12:00 2,7 C 89 % 994,2 hPa 0,0 l/m W-SW 14,6 km/h (3 Bft)
24.11.2008 13:00 2,6 C 89 % 994,6 hPa 0,0 l/m SW 12,8 km/h (3 Bft)
24.11.2008 14:00 2,8 C 88 % 994,8 hPa 0,0 l/m W-SW 7,8 km/h (2 Bft)
24.11.2008 15:00 2,8 C 87 % 995,4 hPa 0,0 l/m W 7,5 km/h (2 Bft)
24.11.2008 16:00 2,2 C 88 % 996,2 hPa 0,0 l/m W 6,6 km/h (2 Bft)
24.11.2008 17:00 1,5 C 91 % 996,6 hPa 0,0 l/m SW 7,0 km/h (2 Bft)
24.11.2008 18:00 1,1 C 93 % 997,2 hPa 0,0 l/m S-SW 6,0 km/h (2 Bft)
24.11.2008 19:00 0,9 C 94 % 998,2 hPa 0,0 l/m N 1,9 km/h (1 Bft)
24.11.2008 20:00 0,8 C 94 % 998,7 hPa 0,0 l/m S-SW 3,9 km/h (1 Bft)
24.11.2008 21:00 0,7 C 95 % 999,5 hPa 0,0 l/m N 1,6 km/h (1 Bft)
24.11.2008 22:00 0,5 C 95 % 999,9 hPa 0,0 l/m N 1,1 km/h (0 Bft)
24.11.2008 23:00 0,3 C 95 % 1000,4 hPa 0,0 l/m N 0,7 km/h (0 Bft)
25.11.2008 00:00 0,2 C 96 % 1001,1 hPa 0,0 l/m SW 1,5 km/h (1 Bft)
25.11.2008 01:00 -0,3 C 95 % 1001,8 hPa 0,0 l/m N 0,3 km/h (0 Bft)
25.11.2008 02:00 -0,6 C 97 % 1002,5 hPa 0,0 l/m SW 2,0 km/h (1 Bft)
25.11.2008 03:00 -0,8 C 97 % 1003,3 hPa 0,0 l/m SW 1,5 km/h (1 Bft)
25.11.2008 04:00 -1,2 C 96 % 1003,9 hPa 0,0 l/m N 0,9 km/h (0 Bft)
25.11.2008 05:00 -2,1 C 95 % 1004,5 hPa 0,0 l/m N 0,5 km/h (0 Bft)
25.11.2008 06:00 -2,9 C 94 % 1005,3 hPa 0,0 l/m W 0,4 km/h (0 Bft)
25.11.2008 07:00 -2,9 C 97 % 1006,6 hPa 0,0 l/m N 0,3 km/h (0 Bft)
25.11.2008 08:00 -1,9 C 98 % 1007,8 hPa 0,0 l/m N-NO 3,3 km/h (1 Bft)
25.11.2008 09:00 -0,7 C 95 % 1008,8 hPa 0,0 l/m N-NO 9,7 km/h (2 Bft)
25.11.2008 10:00 -0,2 C 90 % 1009,9 hPa 0,0 l/m NO 9,8 km/h (2 Bft)
25.11.2008 11:00 -0,1 C 87 % 1010,5 hPa 0,0 l/m N 10,2 km/h (2 Bft)
25.11.2008 12:00 0,2 C 81 % 1011,2 hPa 0,0 l/m N-NO 6,1 km/h (2 Bft)
25.11.2008 13:00 0,8 C 73 % 1011,9 hPa 0,0 l/m N-NO 6,9 km/h (2 Bft)
25.11.2008 14:00 0,9 C 71 % 1012,6 hPa 0,0 l/m W-NW 5,1 km/h (1 Bft)
25.11.2008 15:00 0,5 C 75 % 1013,6 hPa 0,0 l/m SW 5,7 km/h (1 Bft)
25.11.2008 16:00 0,3 C 79 % 1014,9 hPa 0,0 l/m SW 4,1 km/h (1 Bft)
25.11.2008 17:00 0,2 C 78 % 1015,8 hPa 0,0 l/m NW 4,8 km/h (1 Bft)
25.11.2008 18:00 -0,1 C 78 % 1016,6 hPa 0,0 l/m NW 2,3 km/h (1 Bft)
25.11.2008 19:00 -0,3 C 80 % 1017,6 hPa 0,0 l/m N 0,8 km/h (0 Bft)
25.11.2008 20:00 -0,6 C 82 % 1018,5 hPa 0,0 l/m NW 1,9 km/h (1 Bft)
25.11.2008 21:00 -0,9 C 82 % 1019,4 hPa 0,0 l/m N 4,0 km/h (1 Bft)
25.11.2008 22:00 -1,9 C 84 % 1020,3 hPa 0,0 l/m N 1,3 km/h (1 Bft)
25.11.2008 23:00 -3,0 C 87 % 1020,9 hPa 0,0 l/m N 0,1 km/h (0 Bft)
26.11.2008 00:00 -3,9 C 89 % 1021,6 hPa 0,0 l/m N 0,0 km/h (0 Bft)
26.11.2008 01:00 -4,6 C 91 % 1022,3 hPa 0,0 l/m SW 1,3 km/h (1 Bft)
26.11.2008 02:00 -4,9 C 93 % 1022,8 hPa 0,0 l/m SW 2,0 km/h (1 Bft)
26.11.2008 03:00 -4,6 C 94 % 1023,2 hPa 0,0 l/m N 0,4 km/h (0 Bft)
26.11.2008 04:00 -3,8 C 95 % 1023,8 hPa 0,0 l/m N 0,3 km/h (0 Bft)
26.11.2008 05:00 -3,4 C 93 % 1024,3 hPa 0,0 l/m N 0,7 km/h (0 Bft)
26.11.2008 06:00 -3,3 C 93 % 1024,8 hPa 0,0 l/m W 1,3 km/h (1 Bft)
26.11.2008 07:00 -3,1 C 93 % 1025,4 hPa 0,0 l/m N 0,4 km/h (0 Bft)
26.11.2008 08:00 -2,7 C 94 % 1026,4 hPa 0,0 l/m N 0,0 km/h (0 Bft)
26.11.2008 09:00 -2,1 C 92 % 1027,1 hPa 0,0 l/m N 0,9 km/h (0 Bft)
26.11.2008 10:00 -1,2 C 90 % 1027,6 hPa 0,0 l/m SW 3,9 km/h (1 Bft)
26.11.2008 11:00 -0,2 C 87 % 1027,4 hPa 0,0 l/m SW 6,9 km/h (2 Bft)
26.11.2008 12:00 0,9 C 84 % 1026,8 hPa 0,0 l/m W-SW 5,3 km/h (1 Bft)
26.11.2008 13:00 1,8 C 78 % 1026,8 hPa 0,0 l/m NO 6,0 km/h (2 Bft)
26.11.2008 14:00 2,1 C 73 % 1026,7 hPa 0,0 l/m N-NO 4,1 km/h (1 Bft)
26.11.2008 15:00 1,9 C 72 % 1026,8 hPa 0,0 l/m O-SO 4,1 km/h (1 Bft)
26.11.2008 16:00 1,3 C 75 % 1027,4 hPa 0,0 l/m N 1,3 km/h (1 Bft)
26.11.2008 17:00 -0,5 C 80 % 1027,5 hPa 0,0 l/m N 0,4 km/h (0 Bft)
26.11.2008 18:00 -1,9 C 85 % 1027,7 hPa 0,0 l/m N 0,0 km/h (0 Bft)
26.11.2008 19:00 -2,8 C 88 % 1027,8 hPa 0,0 l/m N 0,0 km/h (0 Bft)
26.11.2008 20:00 -3,4 C 89 % 1027,8 hPa 0,0 l/m N 0,0 km/h (0 Bft)
26.11.2008 21:00 -3,9 C 91 % 1028,2 hPa 0,0 l/m N 0,0 km/h (0 Bft)
26.11.2008 22:00 -4,3 C 91 % 1028,4 hPa 0,0 l/m N 0,0 km/h (0 Bft)
26.11.2008 23:00 -4,7 C 91 % 1028,3 hPa 0,0 l/m N 0,1 km/h (0 Bft)
27.11.2008 00:00 -5,1 C 92 % 1027,9 hPa 0,0 l/m N 0,3 km/h (0 Bft)
27.11.2008 01:00 -5,5 C 92 % 1027,4 hPa 0,0 l/m N 0,0 km/h (0 Bft)
27.11.2008 02:00 -5,7 C 92 % 1027,3 hPa 0,0 l/m N 0,1 km/h (0 Bft)
27.11.2008 03:00 -5,8 C 92 % 1026,7 hPa 0,0 l/m N 0,1 km/h (0 Bft)
27.11.2008 04:00 -6,0 C 92 % 1026,3 hPa 0,0 l/m N 1,6 km/h (1 Bft)
27.11.2008 05:00 -6,1 C 93 % 1026,0 hPa 0,0 l/m N 0,3 km/h (0 Bft)
27.11.2008 06:00 -6,3 C 92 % 1025,8 hPa 0,0 l/m N 0,0 km/h (0 Bft)
27.11.2008 07:00 -6,5 C 92 % 1025,6 hPa 0,0 l/m N 0,1 km/h (0 Bft)
27.11.2008 08:00 -6,7 C 93 % 1025,6 hPa 0,0 l/m N 0,0 km/h (0 Bft)
27.11.2008 09:00 -5,9 C 94 % 1025,6 hPa 0,0 l/m S 2,7 km/h (1 Bft)
27.11.2008 10:00 -4,5 C 93 % 1025,3 hPa 0,0 l/m SW 5,6 km/h (1 Bft)
27.11.2008 11:00 -2,7 C 91 % 1024,7 hPa 0,0 l/m S-SW 13,4 km/h (3 Bft)
27.11.2008 12:00 -1,4 C 88 % 1023,9 hPa 0,0 l/m S-SW 12,0 km/h (2 Bft)
27.11.2008 13:00 -1,2 C 87 % 1023,3 hPa 0,0 l/m SW 12,4 km/h (3 Bft)
27.11.2008 14:00 -1,3 C 86 % 1022,7 hPa 0,0 l/m SW 13,4 km/h (3 Bft)
27.11.2008 15:00 -1,6 C 87 % 1022,3 hPa 0,0 l/m S-SW 13,8 km/h (3 Bft)
27.11.2008 16:00 -2,1 C 87 % 1022,0 hPa 0,0 l/m SW 9,3 km/h (2 Bft)
27.11.2008 17:00 -2,6 C 89 % 1021,6 hPa 0,0 l/m W-SW 8,6 km/h (2 Bft)
27.11.2008 18:00 -2,8 C 90 % 1021,2 hPa 0,0 l/m W-SW 9,4 km/h (2 Bft)
27.11.2008 19:00 -3,1 C 92 % 1020,6 hPa 0,0 l/m W 8,7 km/h (2 Bft)
27.11.2008 20:00 -3,3 C 93 % 1020,1 hPa 0,0 l/m W-SW 6,8 km/h (2 Bft)
27.11.2008 21:00 -3,5 C 92 % 1019,6 hPa 0,0 l/m N 0,5 km/h (0 Bft)
27.11.2008 22:00 -4,3 C 92 % 1019,1 hPa 0,0 l/m SW 1,2 km/h (1 Bft)
27.11.2008 23:00 -5,1 C 95 % 1018,4 hPa 0,0 l/m S 4,0 km/h (1 Bft)
28.11.2008 00:00 -5,4 C 96 % 1017,6 hPa 0,0 l/m SW 3,5 km/h (1 Bft)
28.11.2008 01:00 -6,1 C 96 % 1016,8 hPa 0,0 l/m S-SW 3,5 km/h (1 Bft)
28.11.2008 02:00 -6,3 C 96 % 1016,2 hPa 0,0 l/m S-SW 5,7 km/h (1 Bft)
28.11.2008 03:00 -6,4 C 96 % 1015,4 hPa 0,0 l/m S 6,0 km/h (2 Bft)
28.11.2008 04:00 -6,4 C 96 % 1014,5 hPa 0,0 l/m N 2,1 km/h (1 Bft)
28.11.2008 05:00 -6,2 C 96 % 1013,5 hPa 0,0 l/m S-SW 2,9 km/h (1 Bft)
28.11.2008 06:00 -6,2 C 96 % 1012,7 hPa 0,0 l/m N 1,2 km/h (1 Bft)
28.11.2008 07:00 -6,6 C 93 % 1011,7 hPa 0,0 l/m NW 1,7 km/h (1 Bft)
28.11.2008 08:00 -7,3 C 92 % 1011,0 hPa 0,0 l/m N-NO 2,0 km/h (1 Bft)
28.11.2008 09:00 -7,2 C 94 % 1010,3 hPa 0,0 l/m N-NW 4,3 km/h (1 Bft)
28.11.2008 10:00 -6,1 C 94 % 1008,9 hPa 0,0 l/m N-NW 5,9 km/h (2 Bft)
28.11.2008 11:00 -4,8 C 95 % 1007,1 hPa 0,0 l/m N 7,1 km/h (2 Bft)
28.11.2008 12:00 -3,6 C 95 % 1005,4 hPa 0,0 l/m N 6,4 km/h (2 Bft)
28.11.2008 13:00 -2,7 C 92 % 1003,5 hPa 0,0 l/m N-NO 7,9 km/h (2 Bft)
28.11.2008 14:00 -2,3 C 90 % 1002,0 hPa 0,0 l/m N-NO 9,8 km/h (2 Bft)
28.11.2008 15:00 -2,3 C 89 % 1001,2 hPa 0,0 l/m NO 9,9 km/h (2 Bft)
28.11.2008 16:00 -2,6 C 89 % 1000,3 hPa 0,0 l/m N 7,0 km/h (2 Bft)
28.11.2008 17:00 -3,1 C 91 % 1000,2 hPa 0,0 l/m N 4,5 km/h (1 Bft)
28.11.2008 18:00 -3,0 C 93 % 999,5 hPa 0,0 l/m N-NW 5,2 km/h (1 Bft)
28.11.2008 19:00 -3,0 C 93 % 998,9 hPa 0,0 l/m N 2,0 km/h (1 Bft)
28.11.2008 20:00 -3,5 C 92 % 999,1 hPa 0,0 l/m N 2,3 km/h (1 Bft)
28.11.2008 21:00 -3,8 C 94 % 999,0 hPa 0,0 l/m SW 3,2 km/h (1 Bft)
28.11.2008 22:00 -3,6 C 94 % 999,1 hPa 0,0 l/m S 6,6 km/h (2 Bft)
28.11.2008 23:00 -3,1 C 94 % 998,9 hPa 0,0 l/m SW 9,9 km/h (2 Bft)
29.11.2008 00:00 -3,1 C 93 % 998,7 hPa 0,0 l/m SW 8,3 km/h (2 Bft)
29.11.2008 01:00 -3,0 C 95 % 998,6 hPa 0,0 l/m S-SW 10,3 km/h (2 Bft)
29.11.2008 02:00 -2,8 C 95 % 998,6 hPa 0,0 l/m SW 6,7 km/h (2 Bft)
29.11.2008 03:00 -2,5 C 95 % 998,4 hPa 0,0 l/m SW 7,4 km/h (2 Bft)
29.11.2008 04:00 -2,6 C 94 % 998,2 hPa 0,0 l/m SW 4,0 km/h (1 Bft)
29.11.2008 05:00 -2,8 C 94 % 998,1 hPa 0,0 l/m SW 6,1 km/h (2 Bft)
29.11.2008 06:00 -2,9 C 94 % 998,3 hPa 0,0 l/m SW 2,5 km/h (1 Bft)
29.11.2008 07:00 -2,9 C 94 % 998,5 hPa 0,0 l/m S-SW 6,1 km/h (2 Bft)
29.11.2008 08:00 -2,5 C 94 % 998,6 hPa 0,0 l/m S-SO 4,3 km/h (1 Bft)
29.11.2008 09:00 -1,9 C 92 % 998,8 hPa 0,0 l/m N 1,7 km/h (1 Bft)
29.11.2008 10:00 -1,1 C 90 % 999,1 hPa 0,0 l/m S-SO 5,5 km/h (1 Bft)
29.11.2008 11:00 0,0 C 87 % 998,7 hPa 0,0 l/m SW 4,5 km/h (1 Bft)
29.11.2008 12:00 1,3 C 79 % 998,4 hPa 0,0 l/m SW 7,1 km/h (2 Bft)
29.11.2008 13:00 1,6 C 77 % 997,9 hPa 0,0 l/m SW 2,8 km/h (1 Bft)
29.11.2008 14:00 2,4 C 75 % 997,4 hPa 0,0 l/m NO 2,3 km/h (1 Bft)
29.11.2008 15:00 2,6 C 73 % 997,2 hPa 0,0 l/m NO 4,1 km/h (1 Bft)
29.11.2008 16:00 1,7 C 76 % 997,3 hPa 0,0 l/m N-NW 3,3 km/h (1 Bft)
29.11.2008 17:00 -0,3 C 83 % 997,7 hPa 0,0 l/m N-NW 3,9 km/h (1 Bft)
29.11.2008 18:00 -1,1 C 87 % 997,6 hPa 0,0 l/m N-NW 5,3 km/h (1 Bft)
29.11.2008 19:00 -1,6 C 89 % 997,1 hPa 0,0 l/m N-NW 5,3 km/h (1 Bft)
29.11.2008 20:00 -1,7 C 89 % 996,4 hPa 0,0 l/m N 5,3 km/h (1 Bft)
29.11.2008 21:00 -1,6 C 89 % 995,6 hPa 0,0 l/m N 6,4 km/h (2 Bft)
29.11.2008 22:00 -1,4 C 89 % 994,4 hPa 0,0 l/m N 9,9 km/h (2 Bft)
29.11.2008 23:00 -1,3 C 88 % 993,6 hPa 0,0 l/m N-NO 9,1 km/h (2 Bft)
30.11.2008 00:00 -1,5 C 88 % 992,8 hPa 0,0 l/m N 6,4 km/h (2 Bft)
30.11.2008 01:00 -1,8 C 90 % 992,7 hPa 0,0 l/m N 7,9 km/h (2 Bft)
30.11.2008 02:00 -1,9 C 90 % 992,8 hPa 0,0 l/m N-NO 4,7 km/h (1 Bft)
30.11.2008 03:00 -2,1 C 91 % 992,9 hPa 0,0 l/m NW 4,0 km/h (1 Bft)
30.11.2008 04:00 -1,9 C 91 % 994,1 hPa 0,0 l/m NW 6,4 km/h (2 Bft)
30.11.2008 05:00 -2,1 C 90 % 995,2 hPa 0,0 l/m S-SW 2,9 km/h (1 Bft)
30.11.2008 06:00 -2,8 C 91 % 996,0 hPa 0,0 l/m N-NW 3,7 km/h (1 Bft)
30.11.2008 07:00 -3,6 C 91 % 996,3 hPa 0,0 l/m N 1,6 km/h (1 Bft)
30.11.2008 08:00 -4,2 C 93 % 996,9 hPa 0,0 l/m N 2,4 km/h (1 Bft)
30.11.2008 09:00 -2,5 C 94 % 998,1 hPa 0,0 l/m SO 3,5 km/h (1 Bft)
30.11.2008 10:00 0,5 C 86 % 999,0 hPa 0,0 l/m SO 3,2 km/h (1 Bft)
30.11.2008 11:00 2,7 C 81 % 998,8 hPa 0,0 l/m S 5,2 km/h (1 Bft)
30.11.2008 12:00 4,5 C 76 % 998,5 hPa 0,0 l/m SO 5,5 km/h (1 Bft)
30.11.2008 13:00 5,5 C 71 % 998,3 hPa 0,0 l/m O-SO 8,4 km/h (2 Bft)
30.11.2008 14:00 5,3 C 72 % 998,1 hPa 0,0 l/m SO 6,4 km/h (2 Bft)
30.11.2008 15:00 5,1 C 72 % 997,9 hPa 0,0 l/m O-SO 6,0 km/h (2 Bft)
30.11.2008 16:00 4,2 C 74 % 998,0 hPa 0,0 l/m O-NO 3,9 km/h (1 Bft)
30.11.2008 17:00 2,3 C 80 % 998,4 hPa 0,0 l/m NW 3,5 km/h (1 Bft)
30.11.2008 18:00 0,8 C 85 % 998,7 hPa 0,0 l/m N-NO 3,9 km/h (1 Bft)
30.11.2008 19:00 -0,1 C 87 % 999,1 hPa 0,0 l/m NW 3,2 km/h (1 Bft)
30.11.2008 20:00 -0,9 C 89 % 999,3 hPa 0,0 l/m NW 2,3 km/h (1 Bft)
30.11.2008 21:00 -1,4 C 90 % 999,2 hPa 0,0 l/m NW 2,8 km/h (1 Bft)
30.11.2008 22:00 -1,7 C 92 % 999,0 hPa 0,0 l/m N 5,9 km/h (2 Bft)
30.11.2008 23:00 -1,4 C 92 % 999,1 hPa 0,0 l/m N 5,6 km/h (1 Bft)
Min-Datum _ 28.11.08 25.11.08 24.11.08 - - 24.11.08
_ Min-Zeit 08:35 14:15 00:25 - - 18:40
Minimum _ -7,4 C 69 % 991,1 hPa - - 0,0 km/h (0 Bft)
Max-Datum _ 30.11.08 28.11.08 26.11.08 24.11.08 - 24.11.08
_ Max-Zeit 13:30 21:05 21:45 02:50 - 00:25
Maximum _ 5,7 C 100 % 1028,5 hPa 0,2 l/m - 35,4 km/h
SW (5 Bft)
Durchschnitt _ -1,7 C 89 % 1008,1 hPa #0,2 l/m SW 5,3 km/h (1 Bft)